You are here:

home

Questo sito é stato creato esclusivamente per valorizzare il lavoro svolto dall' intero
155° Gruppo E.T.S. del' Aeronautica Militare e non ha nessun fine commerciale ne di lucro. 
Pertanto, l' utilizzo delle foto é consentito solo per uso PRIVATO.

 

 
In alto

LIMS - Piacenza, San Damiano

[source: ADDS]
METAR
LIMS 220955Z 08002KT 0200 R30/0325 R12/0225 FG VV002 03/03 Q1018 RMK VIS MIN 0200 WIND THR30 03002KT RED =
TAF
TAF LIMS 220800Z 2209/2218 VRB02KT 0100 FG VV001 BECMG 2209/2211 0800 FG BKN003 BECMG 2211/2212 5000 BR SCT025 =
In alto
WEB MASTER
Paolo "paolopaso" Pasotti
______________________________________
Last Update: 25/02/2011
_____________________________________________________________________________________________________________
© 2010 / 2011 - Tutti i diritti riservati
 
 
In alto